TimePDT,TemperatureF,Dew PointF,Humidity,Sea Level PressureIn,VisibilityMPH,Wind Direction,Wind SpeedMPH,Gust SpeedMPH,PrecipitationIn,Events,Conditions,WindDirDegrees,DateUTC
12:00 AM,53.6,51.8,94,29.50,5.0,South,19.6,26.5,N/A,Rain,Light Rain,190,2013-09-29 07:00:00
12:03 AM,53.6,51.8,94,29.50,8.0,SW,24.2,32.2,N/A,Rain,Light Rain,220,2013-09-29 07:03:00
12:04 AM,53.6,51.8,94,29.51,7.0,SW,28.8,36.8,N/A,Rain,Light Rain,220,2013-09-29 07:04:00
12:09 AM,51.8,50.0,94,29.51,5.0,SSW,27.6,39.1,N/A,Rain,Light Rain,210,2013-09-29 07:09:00
12:11 AM,51.8,50.0,94,29.51,5.0,SW,25.3,39.1,N/A,Rain,Light Rain,220,2013-09-29 07:11:00
12:13 AM,51.8,50.0,94,29.51,5.0,SW,24.2,39.1,N/A,Rain,Light Rain,220,2013-09-29 07:13:00
12:14 AM,51.8,50.0,94,29.51,5.0,SW,23.0,39.1,N/A,Rain,Light Rain,220,2013-09-29 07:14:00
12:24 AM,50.0,48.2,94,29.50,8.0,SW,23.0,29.9,N/A,Rain,Light Rain,220,2013-09-29 07:24:00
12:28 AM,50.0,48.2,94,29.50,9.0,SW,20.7,29.9,N/A,Rain,Light Rain,230,2013-09-29 07:28:00
12:37 AM,50.0,48.2,94,29.50,10.0,SW,21.9,28.8,N/A,,Overcast,230,2013-09-29 07:37:00
12:39 AM,50.0,48.2,94,29.50,10.0,SW,20.7,27.6,N/A,Rain,Light Rain,230,2013-09-29 07:39:00
12:49 AM,50.0,48.2,94,29.52,9.0,SSW,18.4,-,N/A,Rain,Light Rain,210,2013-09-29 07:49:00
12:53 AM,50.0,46.4,87,29.53,9.0,SSW,16.1,-,N/A,Rain,Light Rain,210,2013-09-29 07:53:00
12:58 AM,49.1,47.3,93,29.52,9.0,SSW,18.4,26.5,0.07,Rain,Light Rain,200,2013-09-29 07:58:00
1:21 AM,48.2,46.4,93,29.53,9.0,SSW,21.9,31.1,N/A,Rain,Rain,200,2013-09-29 08:21:00
1:51 AM,46.4,44.6,93,29.50,9.0,South,19.6,25.3,N/A,Rain,Light Rain,170,2013-09-29 08:51:00
1:58 AM,47.1,44.6,91,29.50,10.0,SSE,18.4,25.3,0.09,Rain,Light Rain,160,2013-09-29 08:58:00
2:22 AM,46.4,44.6,93,29.54,10.0,South,23.0,29.9,N/A,Rain,Light Rain,190,2013-09-29 09:22:00
2:23 AM,46.4,44.6,93,29.54,10.0,South,24.2,29.9,N/A,Rain,Light Rain,190,2013-09-29 09:23:00
2:24 AM,46.4,44.6,93,29.54,10.0,South,24.2,29.9,N/A,Rain,Light Rain,180,2013-09-29 09:24:00
2:29 AM,46.4,44.6,93,29.54,10.0,South,24.2,33.4,N/A,Rain,Light Rain,180,2013-09-29 09:29:00
2:30 AM,46.4,44.6,93,29.54,10.0,South,25.3,33.4,N/A,Rain,Light Rain,180,2013-09-29 09:30:00
2:34 AM,46.4,44.6,93,29.54,10.0,South,18.4,33.4,N/A,Rain,Light Rain,180,2013-09-29 09:34:00
2:40 AM,46.4,44.6,93,29.54,10.0,South,24.2,35.7,N/A,Rain,Light Rain,190,2013-09-29 09:40:00
2:51 AM,46.4,42.8,87,29.56,10.0,South,26.5,39.1,N/A,Rain,Light Rain,190,2013-09-29 09:51:00
2:58 AM,45.7,43.0,90,29.56,10.0,South,26.5,39.1,0.00,Rain,Light Rain,190,2013-09-29 09:58:00
3:20 AM,44.6,42.8,93,29.54,10.0,South,26.5,35.7,N/A,Rain,Light Rain,180,2013-09-29 10:20:00
3:50 AM,44.6,42.8,93,29.55,10.0,South,23.0,40.3,N/A,,Overcast,180,2013-09-29 10:50:00
3:58 AM,44.8,43.2,94,29.56,10.0,South,25.3,36.8,0.00,,Overcast,180,2013-09-29 10:58:00
4:02 AM,44.6,42.8,93,29.56,10.0,South,24.2,36.8,N/A,,Overcast,190,2013-09-29 11:02:00
4:35 AM,44.6,42.8,93,29.59,10.0,SSW,27.6,34.5,N/A,,Overcast,200,2013-09-29 11:35:00
4:39 AM,44.6,42.8,93,29.59,10.0,South,21.9,34.5,N/A,,Overcast,190,2013-09-29 11:39:00
4:54 AM,44.6,42.8,93,29.59,10.0,SSW,21.9,31.1,N/A,,Overcast,200,2013-09-29 11:54:00
4:58 AM,45.0,43.0,93,29.60,10.0,SSW,20.7,31.1,N/A,,Overcast,200,2013-09-29 11:58:00
5:22 AM,44.6,42.8,93,29.59,10.0,South,18.4,27.6,N/A,,Overcast,190,2013-09-29 12:22:00
5:30 AM,44.6,42.8,93,29.60,10.0,South,21.9,28.8,N/A,,Overcast,190,2013-09-29 12:30:00
5:58 AM,44.4,42.1,91,29.62,10.0,South,21.9,26.5,0.00,,Overcast,190,2013-09-29 12:58:00
6:24 AM,44.6,41.0,87,29.62,10.0,South,21.9,27.6,N/A,,Mostly Cloudy,190,2013-09-29 13:24:00
6:32 AM,44.6,41.0,87,29.61,10.0,South,20.7,28.8,N/A,,Scattered Clouds,190,2013-09-29 13:32:00
6:58 AM,43.7,40.8,90,29.63,10.0,South,19.6,25.3,N/A,,Clear,190,2013-09-29 13:58:00
7:58 AM,45.1,41.2,86,29.63,10.0,South,23.0,32.2,N/A,,Clear,190,2013-09-29 14:58:00
8:58 AM,46.6,41.2,81,29.64,10.0,South,20.7,32.2,N/A,,Partly Cloudy,190,2013-09-29 15:58:00
9:58 AM,48.9,41.9,77,29.66,10.0,South,23.0,28.8,N/A,,Partly Cloudy,190,2013-09-29 16:58:00
10:58 AM,49.6,41.9,75,29.68,10.0,South,18.4,-,N/A,,Mostly Cloudy,190,2013-09-29 17:58:00
11:58 AM,50.7,42.3,73,29.68,10.0,South,17.3,23.0,N/A,,Mostly Cloudy,180,2013-09-29 18:58:00
12:58 PM,51.4,42.1,70,29.66,10.0,South,19.6,-,N/A,,Mostly Cloudy,190,2013-09-29 19:58:00
1:25 PM,51.8,42.8,71,29.65,10.0,South,16.1,27.6,N/A,Rain,Light Rain,180,2013-09-29 20:25:00
1:36 PM,51.8,42.8,71,29.65,10.0,South,17.3,23.0,N/A,,Mostly Cloudy,180,2013-09-29 20:36:00
1:40 PM,51.8,42.8,71,29.65,10.0,South,17.3,-,N/A,Rain,Light Rain,180,2013-09-29 20:40:00
1:58 PM,52.0,43.3,72,29.66,10.0,South,17.3,24.2,0.00,Rain,Light Rain,180,2013-09-29 20:58:00
2:03 PM,51.8,44.6,76,29.65,10.0,South,17.3,27.6,N/A,Rain,Light Rain,180,2013-09-29 21:03:00
2:04 PM,51.8,44.6,76,29.65,10.0,South,15.0,27.6,N/A,Rain,Light Rain,180,2013-09-29 21:04:00
2:14 PM,51.8,44.6,76,29.65,10.0,South,16.1,-,N/A,Rain,Light Rain,170,2013-09-29 21:14:00
2:21 PM,51.8,44.6,76,29.64,10.0,South,18.4,27.6,N/A,Rain,Light Rain,180,2013-09-29 21:21:00
2:58 PM,50.7,46.0,84,29.66,10.0,South,18.4,27.6,0.00,Rain,Light Rain,190,2013-09-29 21:58:00
3:26 PM,51.8,44.6,76,29.65,10.0,South,20.7,26.5,N/A,,Mostly Cloudy,180,2013-09-29 22:26:00
3:42 PM,51.8,44.6,76,29.65,10.0,South,20.7,27.6,N/A,Rain,Light Rain,180,2013-09-29 22:42:00
3:51 PM,51.8,42.8,71,29.64,10.0,South,17.3,25.3,N/A,,Mostly Cloudy,180,2013-09-29 22:51:00
3:58 PM,52.3,43.3,71,29.66,10.0,South,20.7,25.3,0.00,,Overcast,170,2013-09-29 22:58:00
4:34 PM,51.8,42.8,71,29.64,10.0,South,16.1,-,N/A,Rain,Light Rain,180,2013-09-29 23:34:00
4:35 PM,51.8,42.8,71,29.64,10.0,South,16.1,-,N/A,,Scattered Clouds,170,2013-09-29 23:35:00
4:37 PM,51.8,42.8,71,29.64,10.0,South,17.3,21.9,N/A,Rain,Light Rain,170,2013-09-29 23:37:00
4:58 PM,51.1,43.2,74,29.65,10.0,South,12.7,25.3,0.00,Rain,Light Rain,180,2013-09-29 23:58:00
4:59 PM,51.8,42.8,71,29.63,10.0,South,12.7,25.3,N/A,,Partly Cloudy,180,2013-09-29 23:59:00
5:58 PM,50.7,42.8,74,29.64,10.0,SSE,18.4,25.3,0.00,,Scattered Clouds,160,2013-09-30 00:58:00
6:44 PM,50.0,42.8,76,29.61,10.0,SSE,13.8,23.0,N/A,Rain,Light Rain,160,2013-09-30 01:44:00
6:58 PM,49.8,43.2,78,29.63,10.0,SSE,13.8,-,0.00,Rain,Light Rain,160,2013-09-30 01:58:00
7:58 PM,47.1,44.6,91,29.61,10.0,SE,11.5,-,0.01,Rain,Light Rain,140,2013-09-30 02:58:00
8:42 PM,46.4,44.6,93,29.55,10.0,SE,13.8,-,N/A,,Overcast,130,2013-09-30 03:42:00
8:54 PM,46.4,42.8,87,29.55,10.0,SE,16.1,-,N/A,,Light Drizzle,140,2013-09-30 03:54:00
8:58 PM,47.1,43.3,87,29.57,10.0,SE,15.0,-,0.01,,Light Drizzle,140,2013-09-30 03:58:00
9:36 PM,46.4,42.8,87,29.52,10.0,SE,19.6,24.2,N/A,,Overcast,130,2013-09-30 04:36:00
9:46 PM,48.2,42.8,82,29.51,10.0,SE,18.4,-,N/A,Rain,Light Rain,130,2013-09-30 04:46:00
9:56 PM,46.4,42.8,87,29.50,10.0,SE,18.4,25.3,N/A,,Overcast,130,2013-09-30 04:56:00
9:57 PM,46.4,42.8,87,29.50,10.0,SE,18.4,25.3,N/A,Rain,Light Rain,130,2013-09-30 04:57:00
9:58 PM,46.4,42.8,87,29.52,10.0,SE,18.4,25.3,0.00,Rain,Light Rain,130,2013-09-30 04:58:00
10:00 PM,46.4,42.8,87,29.50,10.0,SE,18.4,25.3,N/A,,Overcast,130,2013-09-30 05:00:00
10:03 PM,48.2,42.8,82,29.50,10.0,SE,19.6,25.3,N/A,Rain,Light Rain,130,2013-09-30 05:03:00
10:07 PM,48.2,42.8,82,29.49,10.0,SE,19.6,25.3,N/A,,Overcast,130,2013-09-30 05:07:00
10:08 PM,48.2,42.8,82,29.49,10.0,SE,20.7,-,N/A,Rain,Light Rain,130,2013-09-30 05:08:00
10:39 PM,48.2,44.6,87,29.47,10.0,SE,20.7,25.3,N/A,,Overcast,140,2013-09-30 05:39:00
10:58 PM,47.7,43.9,87,29.46,10.0,SE,20.7,26.5,0.01,,Overcast,130,2013-09-30 05:58:00
11:18 PM,48.2,44.6,87,29.43,10.0,SE,23.0,29.9,N/A,Rain,Light Rain,130,2013-09-30 06:18:00
11:29 PM,48.2,44.6,87,29.44,9.0,SE,21.9,31.1,N/A,Rain,Light Rain,140,2013-09-30 06:29:00
11:37 PM,48.2,44.6,87,29.43,10.0,SE,19.6,31.1,N/A,Rain,Light Rain,130,2013-09-30 06:37:00
11:40 PM,48.2,44.6,87,29.43,9.0,SE,21.9,27.6,N/A,Rain,Light Rain,130,2013-09-30 06:40:00
11:49 PM,46.4,44.6,93,29.42,9.0,SE,18.4,27.6,N/A,Rain,Light Rain,140,2013-09-30 06:49:00
11:58 PM,47.1,44.8,92,29.44,10.0,SE,16.1,-,0.03,Rain,Light Rain,130,2013-09-30 06:58:00